Location: Bacea
(45.9500°N, 22.6667°E)
Time: 06:52:37
(UTC+00:00)

ISS - Visible Passes

Search period start: 27 January 2022 00:00
Search period end: 06 February 2022 00:00
Orbit: 413 x 422 km, 51.6° (Epoch: 27 January)

Date Brightness Start Highest point End Pass type
(mag) Time Alt. Az. Time Alt. Az. Time Alt. Az.
27 Jan -2.5 16:30:41 10° WNW 16:33:40 29° N 16:35:35 17° NE visible
27 Jan -0.9 18:07:45 10° NW 18:08:30 15° NW 18:08:30 15° NW visible
28 Jan -2.7 17:19:40 10° WNW 17:22:26 33° N 17:22:26 33° N visible
29 Jan -2.6 16:31:31 10° WNW 16:34:32 30° N 16:36:23 18° ENE visible
29 Jan -1.1 18:08:18 10° WNW 18:09:19 18° WNW 18:09:19 18° WNW visible
30 Jan -3.4 17:20:13 10° WNW 17:23:18 52° N 17:23:18 52° N visible
31 Jan -3.1 16:32:07 10° NW 16:35:18 40° NNE 16:37:21 19° E visible
31 Jan -1.3 18:08:53 10° WNW 18:10:18 22° W 18:10:18 22° W visible
01 Feb -3.8 17:20:42 10° WNW 17:24:02 76° SSW 17:24:26 64° SSE visible
02 Feb -3.8 16:32:32 10° WNW 16:35:52 72° NNE 16:38:42 14° ESE visible
02 Feb -1.1 18:09:49 10° W 18:11:39 19° WSW 18:11:39 19° WSW visible
03 Feb -2.1 17:21:19 10° WNW 17:24:19 31° SW 17:26:06 19° SSE visible
04 Feb -2.9 16:32:58 10° WNW 16:36:14 50° SW 16:39:28 10° SE visible
05 Feb -0.7 17:22:42 10° WSW 17:24:20 13° SW 17:25:57 10° SSW visible
